Home   Weather   Riesa   Past weeks

Flag for Germany Past Weather in Riesa, Saxony, Germany — Yesterday and Last 2 Weeks

Now
64 °F

Scattered clouds.


Feels Like: 64 °F
Forecast: 53 / 67 °F
Wind: 8 mph from Northwest

Location: Dresden-Klotzsche

Current Time: Aug 20, 2017 at 12:00:47 pm

Latest Report: Aug 20, 2017 at 11:20 am


Visibility: N/A

Pressure: 30.15 "Hg

Humidity: 60%

Dew Point: 50 °F

Location of RiesaLocation

Past Weather in Riesa — Graph

°F

Riesa Temperature Yesterday

Maximum temperature yesterday: 70 °F (at 3:50 pm)
Minimum temperature yesterday: 59 °F (at 11:20 pm)
Average temperature yesterday: 64 °F

High & Low Weather Summary for the Past Weeks

 TemperatureHumidityPressure
High84 °F (Aug 18, 5:20 pm)100% (Aug 5, 10:50 pm)30.24 "Hg (Aug 5, 10:50 pm)
Low52 °F (Aug 7, 3:20 am)29% (Aug 7, 4:50 pm)29.80 "Hg (Aug 18, 7:50 pm)
Average66 °F72%30.05 "Hg
* Reported Aug 5 10:20 am — Aug 20 10:50 am, Riesa. Weather by CustomWeather, © 2017

Note: Actual official high and low records may vary slightly from our data, if they occured in-between our weather recording intervals... More about our weather records

Advertising

Riesa Weather History for the Previous 24 Hours

Scroll right to see more
 ConditionsComfort  
Time TempWeatherWind HumidityBarometerVisibility
10:50 am
Sun, Aug 20
63 °FScattered clouds.8 mph73%30.15 "HgN/A
10:20 am63 °FScattered clouds.7 mph68%30.15 "HgN/A
9:50 am61 °FScattered clouds.7 mph72%30.15 "HgN/A
9:20 am61 °FScattered clouds.7 mph72%30.15 "HgN/A
8:50 am59 °FScattered clouds.6 mph77%30.15 "HgN/A
8:20 am57 °FBroken clouds.5 mph77%30.15 "HgN/A
7:50 am55 °FSunny.3 mph82%30.15 "Hg10 mi
7:20 am55 °FSunny.2 mph82%30.12 "Hg10 mi
6:50 am54 °FSunny.5 mph88%30.12 "Hg10 mi
6:20 am54 °FSunny.6 mph88%30.12 "Hg10 mi
5:50 am54 °FClear.6 mph82%30.12 "Hg10 mi
5:20 am52 °FClear.6 mph88%30.12 "Hg10 mi
4:50 am54 °FClear.5 mph82%30.12 "Hg10 mi
4:20 am54 °FClear.5 mph82%30.12 "Hg10 mi
3:50 am54 °FClear.7 mph82%30.12 "Hg10 mi
3:20 am55 °FClear.7 mph77%30.12 "Hg10 mi
2:50 am55 °FClear.6 mph77%30.12 "Hg10 mi
2:20 am55 °FClear.5 mph77%30.09 "Hg10 mi
1:50 am57 °FClear.6 mph77%30.09 "Hg10 mi
1:20 am55 °FClear.6 mph82%30.09 "Hg10 mi
12:50 am57 °FClear.6 mph77%30.12 "Hg10 mi
12:20 am57 °FClear.6 mph77%30.12 "Hg10 mi
11:50 pm
Sat, Aug 19
59 °FClear.6 mph72%30.12 "Hg10 mi
11:20 pm59 °FClear.5 mph68%30.12 "Hg10 mi
10:50 pm61 °FClear.2 mph59%30.09 "Hg10 mi
10:20 pm61 °FClear.5 mph59%30.09 "Hg10 mi
9:50 pm61 °FClear.2 mph59%30.09 "Hg10 mi
9:20 pm63 °FClear.2 mph56%30.09 "Hg10 mi
8:50 pm63 °FClear.5 mph59%30.09 "Hg10 mi
8:20 pm64 °FClear.2 mph52%30.07 "Hg10 mi
7:50 pm66 °FSunny.2 mph49%30.07 "Hg10 mi
7:20 pm68 °FSunny.3 mph46%30.07 "Hg10 mi
6:50 pm68 °FSunny.6 mph40%30.07 "Hg10 mi
6:20 pm68 °FPassing clouds.6 mph38%30.07 "HgN/A
5:50 pm70 °FPassing clouds.8 mph40%30.07 "HgN/A
5:20 pm70 °FPassing clouds.10 mph43%30.07 "HgN/A
4:50 pm70 °FPassing clouds.10 mph43%30.04 "HgN/A
4:20 pm68 °FSunny.12 mph46%30.07 "Hg10 mi
3:50 pm70 °FPassing clouds.10 mph43%30.07 "HgN/A
3:20 pm68 °FPassing clouds.14 mph49%30.07 "HgN/A
2:53 pm68 °FScattered clouds.16 mph49%30.07 "HgN/A
2:50 pm68 °FScattered clouds.15 mph49%30.07 "HgN/A
2:20 pm66 °FBroken clouds.7 mph68%30.07 "HgN/A
1:50 pm66 °FScattered clouds.3 mph64%30.07 "HgN/A
1:20 pm66 °FPartly sunny.6 mph60%30.07 "HgN/A
12:50 pm66 °FBroken clouds.8 mph56%30.07 "HgN/A
12:20 pm64 °FBroken clouds.9 mph64%30.07 "HgN/A
Weather by CustomWeather, © 2017

See weather overviewHow to use our weather pages